Location: Marcé
(47.5801°N, 0.3280°W)
Time: 12:03:39
(UTC+01:00)

Tiangong - Visible Passes

Search period start: 29 November 2022 00:00
Search period end: 09 December 2022 00:00
Orbit: 385 x 393 km, 41.5° (Epoch: 29 November)

Date Brightness Start Highest point End Pass type
(mag) Time Alt. Az. Time Alt. Az. Time Alt. Az.
30 Nov 0.7 19:39:12 10° SSW 19:39:51 13° SSW 19:39:51 13° SSW visible
01 Dec 0.2 18:41:49 10° S 18:43:32 14° SSE 18:44:30 12° SE visible
02 Dec -0.2 19:19:14 10° SW 19:21:23 22° S 19:21:23 22° S visible
03 Dec 0.0 18:21:26 10° SSW 18:23:45 19° SSE 18:25:54 11° ESE visible
03 Dec 0.9 19:57:25 10° WSW 19:58:12 15° SW 19:58:12 15° SW visible
04 Dec -0.6 18:59:19 10° SW 19:02:02 26° S 19:02:41 24° SSE visible
05 Dec -0.2 18:01:15 10° SW 18:03:52 23° S 18:06:30 10° ESE visible
05 Dec 0.1 19:37:38 10° WSW 19:39:27 22° SW 19:39:27 22° SW visible
06 Dec -0.4 18:39:22 10° WSW 18:42:07 27° S 18:43:55 16° SE visible
07 Dec -0.1 19:17:47 10° WSW 19:20:17 21° SSW 19:20:43 20° S visible
08 Dec -0.1 18:19:21 10° WSW 18:22:00 25° S 18:24:40 10° SE visible
08 Dec 1.1 19:57:01 10° SW 19:57:35 11° SW 19:57:35 11° SW visible
